Torna al catalogo

METEOR 1-16

AttivoMeteoPO
NORAD 7209·PAYLOAD·🇷🇺 Russia

Lanciato Mar 5, 1974 da Plesetsk Cosmodrome

Loading…

Prossimi Passaggi (prossime 24 ore)

TLE

AggiornatoSource: Space-Track

Epoca: Sep 14, 2026, 13:16 UTC

1 07209U 74011A   26257.55316956  .00000048  00000-0  18274-4 0  9991
2 07209  81.2260 301.8667 0039326 146.1019 214.2680 14.14563281707872

Traccia METEOR 1-16 in tempo reale con AllMySat

Download on the App Store